Back to catalog

COSMOS 839 DEB

AliveUNKNOWN
NORAD 10415·DEBRIS·🇷🇺 Russia

Launched Jul 8, 1976 from Plesetsk Cosmodrome

Loading…

Next Passes (next 24 hours)

TLE

FreshSource: Space-Track

Epoch: Sep 14, 2026, 12:25 UTC

1 10415U 76067J   26257.51795456 -.00000007  00000-0  21132-3 0  9991
2 10415  65.8360 276.8960 0675742 120.4942 322.3789 12.18833289233931

Track COSMOS 839 DEB in real time with AllMySat

Download on the App Store